K7ZQU-7 Weather Reports


Display with metric or nautical units.
time (UTC)temp
F
wind
direction
speed
MPH
gust
MPH
rain 1hr
in
rain 24hr
in
rain mn
in
humidity
%
barometer
mb
20260901154902 45 304 4.0 3.0 0.00 0.00 0.00 88 1010.6
20260901154403 45 308 4.0 3.0 0.00 0.00 0.00 90 1010.5
20260901153904 45 323 3.0 4.0 0.00 0.00 0.00 91 1010.5
20260901153404 44 323 5.0 4.0 0.00 0.00 0.00 91 1010.5
20260901152903 44 318 4.0 3.0 0.00 0.00 0.00 92 1010.3
20260901152404 44 305 2.0 2.0 0.00 0.00 0.00 94 1010.5
20260901151904 44 329 3.0 4.0 0.00 0.00 0.00 95 1010.5
20260901151405 43 302 3.0 3.0 0.00 0.00 0.00 95 1010.3
20260901150907 43 323 2.0 1.0 0.00 0.00 0.00 95 1010.3
20260901150404 43 311 4.0 2.0 0.00 0.00 0.00 95 1010.3
20260901145905 43 307 2.0 3.0 0.00 0.00 0.00 96 1010.3
20260901145406 43 316 1.0 4.0 0.00 0.00 0.00 96 1010.3
20260901144907 43 267 1.0 0.0 0.00 0.00 0.00 96 1010.3
20260901144408 42 273 0.0 0.0 0.00 0.00 0.00 96 1010.3
20260901143407 42 312 1.0 0.0 0.00 0.00 0.00 96 1010.2
20260901142908 42 329 3.0 3.0 0.00 0.00 0.00 96 1010.2
20260901142409 41 339 2.0 3.0 0.00 0.00 0.00 96 1010.2
20260901141910 41 316 3.0 3.0 0.00 0.00 0.00 96 1010.1
20260901141409 41 309 2.0 2.0 0.00 0.00 0.00 95 1010.1
20260901140909 41 308 3.0 1.0 0.00 0.00 0.00 95 1010.2
20260901140410 40 318 2.0 2.0 0.00 0.00 0.00 95 1010.1
20260901135911 40 321 3.0 3.0 0.00 0.00 0.00 94 1010.1
20260901135412 40 294 2.0 1.0 0.00 0.00 0.00 93 1010.2
20260901134910 40 308 0.0 2.0 0.00 0.00 0.00 93 1010.1
20260901134411 41 309 2.0 2.0 0.00 0.00 0.00 93 1010.0
20260901133911 41 300 2.0 3.0 0.00 0.00 0.00 95 1010.1
20260901133412 41 332 1.0 2.0 0.00 0.00 0.00 94 1010.1
20260901132411 40 322 2.0 2.0 0.00 0.00 0.00 92 1010.0
20260901131912 41 322 2.0 1.0 0.00 0.00 0.00 92 1010.0
20260901131413 41 316 2.0 2.0 0.00 0.00 0.00 90 1010.0
20260901130914 41 312 2.0 2.0 0.00 0.00 0.00 90 1010.0
20260901130415 41 307 3.0 3.0 0.00 0.00 0.00 89 1010.0
20260901125913 41 321 3.0 2.0 0.00 0.00 0.00 89 1010.0
20260901125414 41 322 3.0 3.0 0.00 0.00 0.00 88 1010.0
20260901124915 41 322 3.0 3.0 0.00 0.00 0.00 88 1010.0
20260901124416 42 325 3.0 3.0 0.00 0.00 0.00 88 1010.0
20260901123917 42 319 3.0 3.0 0.00 0.00 0.00 88 1010.0
20260901123415 42 316 3.0 3.0 0.00 0.00 0.00 87 1009.9
20260901122916 42 318 3.0 2.0 0.00 0.00 0.00 87 1009.9
20260901122417 42 319 2.0 1.0 0.00 0.00 0.00 87 1010.0
20260901121419 42 312 2.0 2.0 0.00 0.00 0.00 87 1009.9
20260901120917 42 318 3.0 3.0 0.00 0.00 0.00 89 1009.8
20260901120418 42 280 0.0 0.0 0.00 0.00 0.00 88 1009.9
20260901115919 42 302 0.0 0.0 0.00 0.00 0.00 86 1010.0
20260901115420 42 302 0.0 0.0 0.00 0.00 0.00 86 1010.0
20260901114921 42 302 0.0 0.0 0.00 0.00 0.00 85 1010.0
20260901114419 43 302 0.0 0.0 0.00 0.00 0.00 84 1010.0
20260901113920 43 302 0.0 0.0 0.00 0.00 0.00 84 1010.1
20260901113421 43 302 0.0 0.0 0.00 0.00 0.00 83 1010.1
20260901112922 43 302 0.0 0.0 0.00 0.00 0.00 84 1010.1
20260901112423 44 302 0.0 0.0 0.00 0.00 0.00 84 1010.1
20260901111921 44 302 0.0 0.0 0.00 0.00 0.00 83 1010.0
20260901111422 44 302 0.0 0.0 0.00 0.00 0.00 83 1010.0
20260901110923 44 302 0.0 0.0 0.00 0.00 0.00 83 1010.1
20260901110424 44 312 0.0 1.0 0.00 0.00 0.00 84 1010.1
20260901105925 44 325 2.0 2.0 0.00 0.00 0.00 85 1010.1
20260901105423 44 328 3.0 2.0 0.00 0.00 0.00 86 1010.1
20260901104924 43 316 2.0 2.0 0.00 0.00 0.00 84 1010.2
20260901104425 43 159 0.0 0.0 0.00 0.00 0.00 82 1010.2
20260901103427 44 159 0.0 0.0 0.00 0.00 0.00 81 1010.2
20260901102925 44 159 0.0 0.0 0.00 0.00 0.00 81 1010.2
20260901102426 44 159 0.0 0.0 0.00 0.00 0.00 81 1010.3
20260901101927 44 159 0.0 0.0 0.00 0.00 0.00 81 1010.5
20260901101428 45 176 0.0 0.0 0.00 0.00 0.00 80 1010.5
20260901100929 45 203 1.0 1.0 0.00 0.00 0.00 79 1010.5
20260901100428 45 235 0.0 0.0 0.00 0.00 0.00 79 1010.5
20260901095929 45 235 0.0 0.0 0.00 0.00 0.00 79 1010.5
20260901095430 46 235 0.0 0.0 0.00 0.00 0.00 78 1010.6
20260901094931 46 235 0.0 0.0 0.00 0.00 0.00 78 1010.6
20260901094432 46 235 0.0 0.0 0.00 0.00 0.00 78 1010.6
20260901093930 46 191 0.0 0.0 0.00 0.00 0.00 78 1010.6
20260901093431 46 191 0.0 1.0 0.00 0.00 0.00 77 1010.6
20260901092932 46 307 0.0 0.0 0.00 0.00 0.00 76 1010.6
20260901092433 46 307 0.0 0.0 0.00 0.00 0.00 76 1010.6
20260901091934 46 288 0.0 0.0 0.00 0.00 0.00 75 1010.7
20260901091432 46 243 0.0 0.0 0.00 0.00 0.00 75 1010.7
20260901090933 46 325 3.0 4.0 0.00 0.00 0.00 75 1010.7
20260901090434 47 319 1.0 0.0 0.00 0.00 0.00 73 1010.8
20260901085935 47 293 1.0 0.0 0.00 0.00 0.00 72 1010.8
20260901085436 47 291 1.0 0.0 0.00 0.00 0.00 71 1010.8
20260901084934 47 318 2.0 2.0 0.00 0.00 0.00 72 1010.9
20260901084435 47 330 2.0 1.0 0.00 0.00 0.00 72 1010.9
20260901083936 47 288 0.0 0.0 0.00 0.00 0.00 72 1010.9
20260901082938 46 287 0.0 0.0 0.00 0.00 0.00 74 1010.9
20260901082436 46 287 0.0 0.0 0.00 0.00 0.00 74 1010.9
20260901081937 46 287 0.0 0.0 0.00 0.00 0.00 74 1010.8
20260901081438 46 287 0.0 0.0 0.00 0.00 0.00 75 1010.9
20260901080939 46 287 0.0 0.0 0.00 0.00 0.00 75 1010.9
20260901075938 45 287 0.0 0.0 0.00 0.00 0.00 74 1010.9
20260901075440 46 287 0.0 0.0 0.00 0.00 0.00 73 1010.9
20260901073942 46 287 0.0 0.0 0.00 0.00 0.00 70 1011.1
20260901072442 47 287 0.0 0.0 0.00 0.00 0.00 70 1010.9
20260901071957 47 287 0.0 0.0 0.00 0.00 0.00 70 1011.1
20260901071444 47 287 0.0 0.0 0.00 0.00 0.00 70 1011.2
20260901071005 47 287 0.0 0.0 0.00 0.00 0.00 70 1011.2
20260901065446 47 287 0.0 0.0 0.00 0.00 0.00 68 1011.4
20260901064947 47 287 0.0 0.0 0.00 0.00 0.00 69 1011.4
20260901064445 47 287 0.0 0.0 0.00 0.00 0.00 68 1011.4
20260901063946 47 287 0.0 0.0 0.00 0.00 0.00 68 1011.4
20260901063447 48 287 0.0 0.0 0.00 0.00 0.00 67 1011.4
20260901061947 48 287 0.0 0.0 0.00 0.00 0.00 67 1011.7
20260901061449 48 287 0.0 0.0 0.00 0.00 0.00 67 1011.7
20260901060450 48 287 0.0 0.0 0.00 0.00 0.00 66 1011.8
20260901055951 48 287 0.0 0.0 0.00 0.00 0.00 65 1011.8
20260901054951 49 287 0.0 0.0 0.00 0.00 0.00 62 1011.9
20260901054451 50 287 0.0 0.0 0.00 0.00 0.00 61 1011.9
20260901053952 50 287 0.0 0.0 0.00 0.00 0.00 61 1011.9
20260901053520 50 287 0.0 0.0 0.00 0.00 0.00 61 1012.0
20260901052453 50 287 0.0 0.0 0.00 0.00 0.00 61 1012.0
20260901051954 51 287 0.0 0.0 0.00 0.00 0.00 60 1012.1
20260901051455 51 287 0.0 0.0 0.00 0.00 0.00 60 1012.0
20260901050956 51 287 0.0 0.0 0.00 0.00 0.00 59 1012.0
20260901050454 51 287 0.0 0.0 0.00 0.00 0.00 59 1012.0
20260901045955 51 287 0.0 0.0 0.00 0.00 0.00 58 1012.0
20260901045456 51 287 0.0 0.0 0.00 0.00 0.00 58 1012.0
20260901043956 51 287 0.0 1.0 0.00 0.00 0.00 55 1012.0
20260901042958 52 298 1.0 1.0 0.00 0.00 0.00 54 1011.9
20260901042459 52 305 0.0 0.0 0.00 0.00 0.00 54 1011.9
20260901041000 53 305 0.0 0.0 0.00 0.00 0.00 51 1011.9
20260901040501 53 305 0.0 0.0 0.00 0.00 0.00 51 1011.9
20260901040002 53 305 0.0 0.0 0.00 0.00 0.00 50 1012.0
20260901035503 54 305 0.0 0.0 0.00 0.00 0.00 49 1012.0
20260901035001 54 305 0.0 0.0 0.00 0.00 0.00 49 1012.0
20260901034502 54 305 0.0 0.0 0.00 0.00 0.00 48 1012.0
20260901033504 55 305 0.0 0.0 0.00 0.00 0.00 47 1011.9
20260901033005 56 305 0.0 0.0 0.00 0.00 0.00 47 1011.9
20260901032503 56 305 0.0 0.0 0.00 0.00 0.00 47 1011.8
20260901031506 57 316 0.0 0.0 0.00 0.00 0.00 46 1011.8
20260901031007 57 308 0.0 2.0 0.00 0.00 0.00 46 1011.8
20260901030508 57 278 1.0 0.0 0.00 0.00 0.00 45 1011.9
20260901025507 58 257 0.0 0.0 0.00 0.00 0.00 44 1011.8
20260901025008 58 291 1.0 0.0 0.00 0.00 0.00 44 1011.8
20260901024509 59 304 0.0 1.0 0.00 0.00 0.00 44 1011.9
20260901024101 59 298 1.0 0.0 0.00 0.00 0.00 44 1011.9
20260901024011 59 298 1.0 0.0 0.00 0.00 0.00 44 1011.9
20260901023009 60 304 2.0 2.0 0.00 0.00 0.00 43 1011.8
20260901022510 60 322 1.0 1.0 0.00 0.00 0.00 42 1011.7
20260901022011 61 301 3.0 3.0 0.00 0.00 0.00 41 1011.8
20260901021512 61 314 0.0 3.0 0.00 0.00 0.00 41 1011.8
20260901021011 61 323 1.0 8.0 0.00 0.00 0.00 40 1011.8
20260901020512 62 308 1.0 3.0 0.00 0.00 0.00 40 1011.8
20260901015514 62 321 5.0 3.0 0.00 0.00 0.00 39 1011.9
20260901015015 63 307 1.0 4.0 0.00 0.00 0.00 38 1011.8
20260901014014 63 308 3.0 4.0 0.00 0.00 0.00 38 1011.9
20260901013516 63 315 2.0 3.0 0.00 0.00 0.00 40 1011.8
20260901013017 63 301 4.0 6.0 0.00 0.00 0.00 39 1011.8
20260901012518 62 294 3.0 0.0 0.00 0.00 0.00 38 1011.8
20260901012016 63 284 3.0 2.0 0.00 0.00 0.00 38 1011.8
20260901011517 63 305 2.0 0.0 0.00 0.00 0.00 38 1011.8
20260901011018 63 338 2.0 5.0 0.00 0.00 0.00 38 1011.9
20260901010020 63 305 5.0 2.0 0.00 0.00 0.00 36 1011.9
20260901005519 64 315 3.0 2.0 0.00 0.00 0.00 36 1011.9
20260901005020 64 325 4.0 2.0 0.00 0.00 0.00 36 1011.9
20260901004522 65 295 4.0 2.0 0.00 0.00 0.00 35 1012.0
20260901003523 66 315 3.0 4.0 0.00 0.00 0.00 33 1011.9
20260901003021 67 326 3.0 2.0 0.00 0.00 0.00 33 1011.9
20260901002522 67 298 2.0 4.0 0.00 0.00 0.00 32 1011.9
20260901002023 67 293 3.0 0.0 0.00 0.00 0.00 31 1011.9
20260901001026 68 300 6.0 5.0 0.00 0.00 0.00 29 1011.8
20260901000524 69 228 4.0 1.0 0.00 0.00 0.00 28 1011.8
20260901000025 69 300 5.0 5.0 0.00 0.00 0.00 28 1011.8
20260831235526 70 316 6.0 5.0 0.00 0.00 0.00 27 1011.7
20260831234027 70 297 6.0 3.0 0.00 0.00 0.00 26 1011.7
20260831233528 70 309 3.0 7.0 0.00 0.00 0.00 27 1011.5
20260831233029 70 305 7.0 2.0 0.00 0.00 0.00 26 1011.5
20260831232531 71 309 2.0 1.0 0.00 0.00 0.00 25 1011.4
20260831232032 71 269 4.0 3.0 0.00 0.00 0.00 25 1011.5
20260831231529 71 311 4.0 5.0 0.00 0.00 0.00 25 1011.5
20260831231031 70 309 7.0 5.0 0.00 0.00 0.00 25 1011.4
20260831225534 71 48 0.0 0.0 0.00 0.00 0.00 20 1011.5
20260831225032 71 89 3.0 2.0 0.00 0.00 0.00 19 1011.4
20260831224534 72 66 3.0 4.0 0.00 0.00 0.00 19 1011.5
20260831224035 72 180 2.0 3.0 0.00 0.00 0.00 20 1011.5
20260831223536 71 308 1.0 0.0 0.00 0.00 0.00 19 1011.4
20260831223037 71 38 2.0 1.0 0.00 0.00 0.00 20 1011.5
20260831222535 71 121 2.0 1.0 0.00 0.00 0.00 21 1011.7
20260831221537 70 191 4.0 4.0 0.00 0.00 0.00 21 1011.8
20260831221039 70 83 3.0 6.0 0.00 0.00 0.00 22 1011.8
20260831220540 69 336 3.0 7.0 0.00 0.00 0.00 21 1011.9
20260831215540 70 145 3.0 3.0 0.00 0.00 0.00 21 1012.0
20260831214541 70 115 4.0 6.0 0.00 0.00 0.00 22 1012.1
20260831214042 69 298 3.0 1.0 0.00 0.00 0.00 24 1012.1
20260831213543 69 153 2.0 1.0 0.00 0.00 0.00 23 1012.1
20260831213042 68 359 1.0 6.0 0.00 0.00 0.00 24 1012.2
20260831212543 68 194 1.0 5.0 0.00 0.00 0.00 25 1012.2
20260831210046 68 107 2.0 3.0 0.00 0.00 0.00 26 1012.5
20260831205547 68 190 2.0 1.0 0.00 0.00 0.00 26 1012.5
20260831205048 67 172 3.0 1.0 0.00 0.00 0.00 27 1012.6
20260831204603 67 105 3.0 3.0 0.00 0.00 0.00 26 1012.5
20260831204047 67 195 4.0 5.0 0.00 0.00 0.00 27 1012.6
20260831203050 67 198 6.0 5.0 0.00 0.00 0.00 27 1012.5
20260831201051 66 215 5.0 1.0 0.00 0.00 0.00 28 1012.7
20260831195053 66 298 2.0 1.0 0.00 0.00 0.00 30 1012.8
20260831192056 64 160 6.0 5.0 0.00 0.00 0.00 30 1013.0
20260831191058 64 176 4.0 4.0 0.00 0.00 0.00 30 1013.1
20260831190557 64 129 2.0 4.0 0.00 0.00 0.00 31 1013.3
20260831185100 63 110 5.0 8.0 0.00 0.00 0.00 30 1013.3
20260831184601 63 125 5.0 5.0 0.00 0.00 0.00 30 1013.5
20260831184059 63 113 4.0 2.0 0.00 0.00 0.00 31 1013.3
20260831183600 63 23 3.0 3.0 0.00 0.00 0.00 31 1013.3
20260831183101 63 205 2.0 6.0 0.00 0.00 0.00 33 1013.3
20260831182629 63 205 3.0 4.0 0.00 0.00 0.00 32 1013.2
20260831182103 62 90 2.0 1.0 0.00 0.00 0.00 33 1013.3
20260831181602 62 37 3.0 2.0 0.00 0.00 0.00 33 1013.3
20260831181103 61 155 2.0 3.0 0.00 0.00 0.00 33 1013.3
20260831180604 61 354 4.0 1.0 0.00 0.00 0.00 34 1013.4
20260831180105 61 165 4.0 4.0 0.00 0.00 0.00 34 1013.3
20260831175606 61 73 5.0 1.0 0.00 0.00 0.00 34 1013.4
20260831175104 61 134 3.0 4.0 0.00 0.00 0.00 34 1013.3
20260831174605 60 319 3.0 2.0 0.00 0.00 0.00 36 1013.5
20260831173607 60 14 3.0 2.0 0.00 0.00 0.00 36 1013.4
20260831173108 59 307 4.0 2.0 0.00 0.00 0.00 37 1013.3
20260831172607 59 221 3.0 2.0 0.00 0.00 0.00 37 1013.5
20260831172108 59 271 5.0 2.0 0.00 0.00 0.00 37 1013.2
20260831171609 58 89 1.0 5.0 0.00 0.00 0.00 40 1013.4
20260831171110 58 120 6.0 3.0 0.00 0.00 0.00 40 1013.2
20260831170611 58 211 4.0 5.0 0.00 0.00 0.00 40 1013.1
20260831170109 58 232 4.0 4.0 0.00 0.00 0.00 40 1013.1
20260831165610 58 214 2.0 6.0 0.00 0.00 0.00 40 1013.2
20260831165111 58 167 1.0 5.0 0.00 0.00 0.00 41 1013.1
20260831164612 58 129 1.0 1.0 0.00 0.00 0.00 41 1013.2
20260831164113 58 115 4.0 5.0 0.00 0.00 0.00 41 1013.1
20260831163611 57 224 3.0 3.0 0.00 0.00 0.00 43 1013.1
20260831163112 57 162 1.0 4.0 0.00 0.00 0.00 43 1013.0
20260831162613 56 235 2.0 1.0 0.00 0.00 0.00 44 1013.1
20260831162114 56 149 3.0 2.0 0.00 0.00 0.00 43 1013.1
20260831161615 56 115 5.0 5.0 0.00 0.00 0.00 44 1013.3
20260831161113 56 89 4.0 4.0 0.00 0.00 0.00 43 1013.2
20260831160614 55 97 4.0 2.0 0.00 0.00 0.00 43 1013.2
20260831160115 55 172 2.0 3.0 0.00 0.00 0.00 45 1013.2
20260831155616 55 181 3.0 3.0 0.00 0.00 0.00 45 1013.3
20260831155117 55 195 2.0 2.0 0.00 0.00 0.00 46 1013.1